EW6551 Weather Reports


time (UTC)temp
C
wind
direction
speed
KPH
gust
KPH
rain 1hr
cm
rain 24hr
cm
rain mn
cm
humidity
%
barometer
mb
20260503070318 11 285 1.6 3.2 0.00 0.10 0.00 79 1015.8
20260503060317 11 285 4.8 4.8 0.00 0.10 0.10 77 1016.1
20260503054317 12 0.0 4.8 0.00 0.10 0.10 74 1016.3
20260503053318 12 285 3.2 6.4 0.00 0.10 0.10 75 1016.3
20260503052337 12 285 3.2 4.8 0.00 0.10 0.10 74 1016.3
20260503051317 12 285 0.0 3.2 0.00 0.10 0.10 72 1016.3
20260503050323 12 285 1.6 6.4 0.00 0.10 0.10 71 1016.6
20260503045317 12 285 3.2 8.0 0.00 0.10 0.10 68 1016.6
20260503044317 12 285 1.6 8.0 0.00 0.10 0.10 68 1016.9
20260503043318 12 285 3.2 3.2 0.00 0.10 0.10 68 1016.5
20260503042317 12 285 0.0 6.4 0.00 0.10 0.10 67 1016.3
20260503041318 12 285 3.2 4.8 0.00 0.10 0.10 68 1016.4
20260503040320 13 285 1.6 6.4 0.00 0.10 0.10 67 1016.3
20260503035338 13 285 3.2 4.8 0.00 0.10 0.10 65 1016.3
20260503034317 13 285 1.6 4.8 0.00 0.10 0.10 62 1016.4
20260503033317 13 0.0 6.4 0.00 0.10 0.10 62 1016.5
20260503032317 13 285 4.8 9.7 0.00 0.10 0.10 61 1016.2
20260503031318 13 285 4.8 6.4 0.00 0.10 0.10 61 1016.0
20260503030317 13 285 3.2 12.9 0.00 0.10 0.10 60 1015.6
20260503025318 13 294 3.2 14.5 0.00 0.10 0.10 59 1015.5
20260503024317 13 283 3.2 14.5 0.00 0.10 0.10 60 1015.3
20260503023318 13 254 6.4 24.1 0.00 0.10 0.10 61 1015.2
20260503022318 13 239 14.5 25.7 0.00 0.10 0.10 61 1015.1
20260503021318 13 289 8.0 19.3 0.00 0.10 0.10 63 1015.2
20260503020318 13 249 14.5 20.9 0.00 0.10 0.10 62 1015.2
20260503015318 13 286 6.4 24.1 0.03 0.10 0.10 65 1015.1
20260503014318 13 267 8.0 17.7 0.10 0.10 0.10 65 1015.0
20260503013318 13 291 9.7 14.5 0.10 0.10 0.10 67 1015.2
20260503012318 13 292 8.0 14.5 0.10 0.10 0.10 67 1015.5
20260503011318 13 310 8.0 14.5 0.10 0.10 0.10 68 1015.7
20260503010318 14 314 3.2 14.5 0.10 0.10 0.10 64 1015.7
20260503005316 16 92 3.2 20.9 0.08 0.08 0.08 52 1015.8
20260503004316 17 347 6.4 14.5 0.00 0.00 0.00 43 1015.6
20260503003316 17 352 9.7 14.5 0.00 0.00 0.00 41 1015.1
20260503002316 17 265 3.2 9.7 0.00 0.00 0.00 41 1014.4
20260503001336 17 223 3.2 8.0 0.00 0.00 0.00 40 1014.1
20260503000337 18 224 6.4 12.9 0.00 0.00 0.00 40 1014.5
20260502235317 18 321 1.6 12.9 0.00 0.00 0.00 34 1014.3
20260502234337 19 285 3.2 12.9 0.00 0.00 0.00 34 1013.9
20260502233338 19 286 8.0 16.1 0.00 0.00 0.00 34 1013.7
20260502232337 20 276 4.8 11.3 0.00 0.00 0.00 33 1013.6
20260502231317 20 239 6.4 16.1 0.00 0.00 0.00 30 1013.8
20260502230316 20 241 8.0 19.3 0.00 0.00 0.00 30 1013.8
20260502225315 21 219 8.0 20.9 0.00 0.00 0.00 28 1013.8
20260502224315 21 141 4.8 20.9 0.00 0.00 0.00 24 1014.0
20260502223316 21 118 12.9 17.7 0.00 0.00 0.00 27 1014.2
20260502222318 21 144 4.8 11.3 0.00 0.00 0.00 26 1014.0
20260502221316 21 130 6.4 14.5 0.00 0.00 0.00 27 1014.2
20260502220315 21 123 8.0 17.7 0.00 0.00 0.00 26 1014.2
20260502215316 20 78 9.7 20.9 0.00 0.00 0.00 26 1014.4
20260502214318 21 69 14.5 35.4 0.00 0.00 0.00 25 1014.6
20260502213318 21 73 6.4 20.9 0.00 0.00 0.00 26 1014.7
20260502212318 21 102 9.7 22.5 0.00 0.00 0.00 26 1014.9
20260502211318 21 91 8.0 20.9 0.00 0.00 0.00 26 1015.0
20260502210319 21 103 8.0 19.3 0.00 0.00 0.00 26 1015.0
20260502205318 21 54 9.7 14.5 0.00 0.00 0.00 26 1015.0
20260502204318 21 123 6.4 17.7 0.00 0.00 0.00 26 1015.1
20260502203318 21 122 6.4 17.7 0.00 0.00 0.00 26 1015.2
20260502202318 21 109 9.7 19.3 0.00 0.00 0.00 26 1015.1
20260502201318 21 97 12.9 20.9 0.00 0.00 0.00 26 1015.2
20260502200318 21 137 6.4 24.1 0.00 0.00 0.00 25 1015.3
20260502195418 21 93 9.7 30.6 0.00 0.00 0.00 25 1015.3
20260502194318 21 78 8.0 22.5 0.00 0.00 0.00 25 1015.3
20260502193318 21 110 8.0 24.1 0.00 0.00 0.00 25 1015.3
20260502192318 22 40 9.7 17.7 0.00 0.00 0.00 25 1015.4
20260502191318 22 128 6.4 16.1 0.00 0.00 0.00 25 1015.4
20260502190318 22 144 4.8 24.1 0.00 0.00 0.00 25 1015.6
20260502185318 21 80 1.6 14.5 0.00 0.00 0.00 25 1015.7
20260502184338 21 92 4.8 14.5 0.00 0.00 0.00 26 1015.7
20260502183315 21 139 9.7 14.5 0.00 0.00 0.00 27 1015.9
20260502182315 20 70 6.4 14.5 0.00 0.00 0.00 27 1016.1
20260502181316 20 40 1.6 14.5 0.00 0.00 0.00 27 1016.2
20260502180316 20 137 3.2 8.0 0.00 0.00 0.00 28 1016.2
20260502170315 18 134 3.2 8.0 0.00 0.00 0.00 32 1016.4
20260502164316 17 134 1.6 9.7 0.00 0.00 0.00 32 1016.4
20260502163315 17 270 1.6 6.4 0.00 0.00 0.00 33 1016.5
20260502162316 17 270 3.2 6.4 0.00 0.00 0.00 35 1016.5
20260502161336 16 270 1.6 4.8 0.00 0.00 0.00 34 1016.5
20260502160336 16 270 1.6 6.4 0.00 0.00 0.00 34 1016.5
20260502152336 15 223 1.6 4.8 0.00 0.00 0.00 43 1016.5
20260502151315 13 0.0 0.0 0.00 0.00 0.00 45 1016.5
20260502150316 12 0.0 0.0 0.00 0.00 0.00 49 1016.5
20260502130316 7 0.0 0.0 0.00 0.00 0.00 52 1015.6
20260502123316 8 0.0 0.0 0.00 0.00 0.00 51 1015.6
20260502122336 8 0.0 0.0 0.00 0.00 0.00 47 1015.6
20260502121315 8 0.0 0.0 0.00 0.00 0.00 49 1015.5
20260502120316 8 0.0 0.0 0.00 0.00 0.00 46 1015.5
20260502115336 8 0.0 0.0 0.00 0.00 0.00 46 1015.5
20260502114316 9 0.0 0.0 0.00 0.00 0.00 44 1015.5
20260502113356 8 0.0 0.0 0.00 0.00 0.00 45 1015.6
20260502112315 8 0.0 0.0 0.00 0.00 0.00 47 1015.6
20260502111316 8 0.0 0.0 0.00 0.00 0.00 50 1015.5
20260502110315 9 0.0 0.0 0.00 0.00 0.00 49 1015.6
20260502105316 9 0.0 0.0 0.00 0.00 0.00 48 1015.5
20260502104316 9 0.0 0.0 0.00 0.00 0.00 45 1015.5
20260502103315 10 0.0 0.0 0.00 0.00 0.00 47 1015.5
20260502102315 10 0.0 0.0 0.00 0.00 0.00 44 1015.5
20260502101316 10 0.0 0.0 0.00 0.00 0.00 43 1015.4
20260502100335 9 0.0 0.0 0.00 0.00 0.00 44 1015.3
20260502091338 10 0.0 0.0 0.00 0.00 0.00 37 1015.8
20260502090318 11 0.0 6.4 0.00 0.00 0.00 36 1015.8
20260502071318 12 0.0 1.6 0.00 0.00 0.00 31 1016.6